Terug naar catalogus

STARLINK-34090

ActiefCommunicatieVLEO
NORAD 63976·PAYLOAD·🇺🇸 United States

Gelanceerd May 13, 2025 vanaf Cape Canaveral Space Force Station

Loading…

Volgende Passages (komende 24 uur)

TLE

VersSource: CelesTrak SupGP

Epoch: Sep 14, 2026, 23:00 UTC

1 63976C 25099AA  26257.95881944 -.00022626  00000+0 -81956-3 0  2574
2 63976  43.0012 183.9332 0001288 263.5247  26.0101 15.27588527    11

Volg STARLINK-34090 in realtime met AllMySat

Download on the App Store